sat.trackr.live / text

‹ back to catalog

FLOCK 4H-21

NORAD 66724 · 2025-276BL

PAYLOAD ACTIVE UNKNOWN

§ Identity

Operator
Country
US
Launch date
2025-11-28
Launch site
AFWTR
Launch vehicle
Mass (kg)
RCS (m²)

Purposes: earth_obs

External: N2YO · Heavens-Above · Gunter

§ Orbital elements

Epoch: 2026-09-20T04:41:41.301024Z

Period
94.63 min
Inclination
97.4100°
Eccentricity
0.0001956
Mean motion
15.21774829 rev/d
Perigee alt
499.1 km
Apogee alt
501.8 km
Semi-major
6,878.6 km
B*
1.7295e-4
RAAN
335.5240°
Arg perigee
13.3580°
Mean anomaly
346.7708°
Rev number
4,413

§ Raw data

FLOCK 4H-211 66724U 25276BL  26263.19561691  .00003853  00000+0  17295-3 0  99992 66724  97.4100 335.5240 0001956  13.3580 346.7708 15.21774829 44134

JSON: /api/v1/satellites/66724 · /tle

For live sub-satellite position, see the globe view (requires WebGL).

§ Visibility from observer

Set your observer location to see the next 7 days of passes ≥ 10°. The values pass through the URL so the page stays shareable.

No JS? Fill the form by hand. The geolocation button needs JavaScript.